Regional Weather Roundup
Issued by NWS Grand Forks, ND

Home | Current Version | Previous Version | Text Only | Print | Product List | Glossary Off
Versions: 1 2 3 4 5 6 7 8 9 10 11 12 13 14 15 16 17 18 19 20 21 22 23 24 25 26 27 28 29 30 31 32 33 34 35 36 37 38 39 40 41 42 43 44 45 46 47 48 49 50

000
ASUS43 KFGF 201010
RWRFGF
PRAIRIE TO PINES  WEATHER ROUNDUP
NATIONAL WEATHER SERVICE EASTERN NORTH DAKOTA/GRAND FORKS ND
400 AM CST SAT DEC 20 2014

 **SATELLITE DATA USED TO AUGMENT SKY COVER AT AUTOMATED STATIONS**
 *****  WEATHER ACROSS EASTERN NORTH DAKOTA  *****

CITY           SKY/WX    TMP DP  RH WIND       PRES   REMARKS
GRAND FORKS    CLOUDY    29  27  92 S6        30.00F FOG     WCI  23
GRAND FRKS AFB CLOUDY    29  29 100 SW5       30.00F WCI  24
GRAND FRKS NWS   N/A     28 N/A N/A SW3         N/A
DEVILS LAKE    CLOUDY    23  18  80 CALM      29.94F
FARGO          CLOUDY    31  28  89 S9        30.03S WCI  23
WAHPETON ARPT  CLOUDY    30  27  86 SW6       30.05S WCI  24
$$

 ***** WEATHER ACROSS CENTRAL AND WESTERN NORTH DAKOTA  *****

CITY           SKY/WX    TMP DP  RH WIND       PRES   REMARKS
BISMARCK       FOG       15  13  91 E5        29.94S VSB 3/4 WCI   8
MINOT          FOG       22  20  92 S5        29.91F VSB 1/4 WCI  16
JAMESTOWN      FOG       22  20  92 CALM      29.97S VSB 1/4
MINOT AFB      FRZ DRZL  22  22 100 S5        29.91F VSB 1/4 WCI  16
GARRISON         N/A     20  17  88 SE5       29.90S WCI  13
WILLISTON      MOCLDY    11   8  88 CALM      29.87S
DICKINSON      CLOUDY    27  22  81 S3        29.84F
HETTINGER      CLOUDY    25  22  88 CALM      29.89S
$$

 *****  OTHER AIRPORT OBSERVATIONS IN OUR AREA  *****

CITY           SKY/WX    TMP DP  RH WIND       PRES   REMARKS
WALHALLA         N/A     27  27 100 S3        29.99F
GRAFTON AIRPOR NOT AVBL
VALLEY CITY AR FOG       25  25 100 SW7       29.99S VSB 1/4 WCI  17
CANDO          CLOUDY    23  23 100 CALM      29.95F FOG
CAVALIER APRT  CLOUDY    27  27 100 CALM      29.99F FOG
GWINNER        CLOUDY    30  30 100 MISG      30.02F
SHEYENNE NWR     N/A     29  27  92 SW5       29.95S WCI  24
ROLLA          CLOUDY    23  23 100 CALM      29.93F FOG
 ***** THE ABOVE OBSERVATIONS ARE NON NWS ARE NOT QUALITY
       CONTROLLED AND MAY MIS-REPORT RAIN FOR SNOW...
$$

  *****  WEATHER ACROSS NORTHERN MINNESOTA  *****

CITY           SKY/WX    TMP DP  RH WIND       PRES   REMARKS
FLAG ISLAND    CLOUDY    25  25 100 S12       30.01F FOG     WCI  14
WARROAD        CLOUDY    27  21  80 S5        30.02S FOG     WCI  21
ROSEAU         CLOUDY    28  23  80 SE6       30.00F HAZE    WCI  22
HALLOCK        CLOUDY    28  27  93 CALM      30.00S FOG
THF RVR FALLS  CLOUDY    28  28 100 S7        30.01S WCI  21
BAUDETTE       CLOUDY    26  23  88 S3        30.02F
WASKISH        LGT SNOW  27  27 100 CALM      30.04S
CROOKSTON      CLOUDY    28  28 100 S10       30.02F FOG     WCI  19
STEPHEN NDAWN    N/A     28  28 100 S3          N/A
GREENBUSH NDAW   N/A     28  27  93 S1          N/A
$$
  *****  WEATHER ACROSS CENTRAL AND WEST MINNESOTA  *****

CITY           SKY/WX    TMP DP  RH WIND       PRES   REMARKS
FOSSTON        CLOUDY    28  28 100 S10       30.02S FOG     WCI  19
BEMIDJI        CLOUDY    28  28  99 S5        30.02S FOG     WCI  23
PARK RAPIDS    CLOUDY    30  28  92 S10       30.03S FOG     WCI  21
ELBOW LAKE     CLOUDY    29  28  96 S12       30.04F FOG     WCI  20
WADENA         CLOUDY    28  28 100 S9        30.04F FOG     WCI  20
DETROIT LAKES  CLOUDY    30  30 100 SW9       30.03S FOG     WCI  22
MOORHEAD       CLOUDY    30  30 100 S8        30.05S WCI  23
FERGUS FALLS   CLOUDY    28  28 100 S8        30.07S FOG     WCI  20
MORRIS MN      CLOUDY    30  28  93 S10       30.05F FOG     WCI  21
STAPLES        CLOUDY    28  28 100 S8        30.06S FOG     WCI  20
$$
  *****  WEATHER ELSEWHERE ACROSS MINNESOTA  *****

CITY           SKY/WX    TMP DP  RH WIND       PRES   REMARKS
DULUTH         LGT SNOW  25  22  88 S7        30.11F FOG     WCI  17
INTRNTL FALLS  LGT SNOW  25  23  92 S6        30.05F FOG     WCI  18
ELY            LGT SNOW  25  25 100 S3        30.10S
CLOQUET        CLOUDY    27  25  93 CALM      30.12R FOG
WHEATON        CLOUDY    28  27  93 S5        30.07S WCI  23
BRAINERD       CLOUDY    29  28  96 S9        30.08S FOG     WCI  20
HIBBING        LGT SNOW  26  23  88 S5        30.09S FOG     WCI  20
ALEXANDRIA     CLOUDY    30  27  88 S15       30.06S FOG     WCI  19
SAINT CLOUD    CLOUDY    32  29  88 S9        30.11S FOG     WCI  24
MINNEAPOLIS    CLOUDY    29  25  85 S8        30.16F FOG     WCI  21
$$

  *****  WEATHER ACROSS SOUTH DAKOTA  *****

CITY           SKY/WX    TMP DP  RH WIND       PRES   REMARKS
SIOUX FALLS    CLOUDY    31  29  92 S7        30.06S WCI  24
BROOKINGS      NOT AVBL
WATERTOWN      CLOUDY    28  27  96 SW10      30.02R FOG     WCI  19
HURON          FOG       27  25  93 S8        30.03F VSB 1/2 WCI  18
SISSETON         N/A     30  28  92 SW7       30.03S WCI  23
ABERDEEN       CLOUDY    27  25  92 S9        30.01F FOG     WCI  18
MITCHELL       FOG       27  26  96 S10       30.04F VSB 1/4 WCI  17
PIERRE         FOG       16  12  84 E3        29.95F VSB<1/4
MOBRIDGE       CLEAR     19  15  84 SE7       29.91S WCI  10
RAPID CITY     CLEAR     30  18  60 NW6       29.90R WCI  24
$$

  *****  SOME WEATHER IN NEARBY STATES *****

CITY           SKY/WX    TMP DP  RH WIND       PRES   REMARKS
GLASGOW MT     CLOUDY    29  26  89 SE3       29.82S
GREAT FALLS MT PTCLDY    33  22  63 SW14      29.85S WCI  23
CHEYENNE WY    CLEAR     34  17  50 VRB7      29.96S
SCOTTSBLUFF NE PTCLDY    15  11  83 CALM      29.97S
OMAHA NE       FRZ DRZL  31  30  96 SE10      30.13F FOG     WCI  22
DES MOINES IA  LGT SNOW  32  29  88 SW8       30.18S FOG     WCI  25
DAVENPORT IA   CLOUDY    29  23  78 SE3       30.25F
CHICAGO IL     CLOUDY    30  23  75 CALM      30.27S
EAU CLAIRE WI  CLOUDY    28  21  75 S6        30.20S WCI  22
LA CROSSE WI   CLOUDY    30  23  75 S7        30.23S WCI  23
$$

  *****  SOME NATIONAL WEATHER *****

CITY           SKY/WX    TMP DP  RH WIND       PRES   REMARKS
LA GUARDIA NY  CLOUDY    31  21  66 N9        30.23R WCI  23
RALEIGH NC     CLOUDY    36  27  69 VRB3      30.24R
ATLANTA GA     LGT RAIN  43  39  86 CALM      30.13S
NEW ORLEANS LA CLOUDY    51  49  92 N14       30.07R FOG
OKLAHOMA CITY  CLOUDY    39  34  82 E3        30.19F
ALBUQUERQUE NM PTCLDY    32  24  72 N7        30.18S
SALT LAKE CITY MOCLDY    39  34  82 CALM      30.13S
LOS ANGELES CA MOCLDY    54  48  80 NE6       30.15F
BOISE ID       CLOUDY    39  34  82 SE8       30.06S
SEATTLE WA     LGT RAIN  45  40  82 SE10      29.81F
$$

*** WEATHER ACROSS MANITOBA...SASKATCHEWAN AND ONTARIO ***
                ***ONTARIO***

CITY           SKY/WX    TMP DP  RH WIND       PRES   REMARKS
GERALDTON      CLOUDY     9   7  92 NW2       30.18F
THUNDER BAY    CLOUDY    23  21  93 CALM      30.19S
SIOUX LOOKOUT  NOT AVBL
TORONTO        PTCLDY    21  18  86 NW6       30.28R WCI  14
BIG TROUT LK   CLOUDY    18  18 100 S7        30.11F WCI   8
PICKLE LAKE    NOT AVBL
DRYDEN         FLURRIES  23  21  93 S9        30.04F WCI  13
KENORA           N/A     23  23 100 S7        30.01F FOG     WCI  15
$$
                *** MANITOBA***

CITY           SKY/WX    TMP DP  RH WIND       PRES   REMARKS
BRANDON        FRZ DRZL  23  23 100 E5        29.95F FOG     WCI  17
DAUPHIN        CLOUDY    21  19  93 E3        29.97F
ISLAND LAKE    FLURRIES  18  16  93 SE3       30.06R
PILOT MOUND      N/A     23  23 100 SW1         N/A
THE PAS        CLOUDY    19  18  93 E5        29.96F FOG     WCI  13
THOMPSON       FLURRIES  16  14  93 SW6       30.02S WCI   7
WINNIPEG       FRZ DRZL  27  25  93 CALM      30.01F FOG
LYNN LAKE      CLOUDY    14  12  92 S8        29.93S FOG     WCI   3
CHURCHILL      FLURRIES  12  10  92 NW8       30.04S WCI   1
GILLAM         LGT SNOW  10   9  92 SW5       30.06R WCI   2
$$
                ***SASKATCHEWAN***

CITY           SKY/WX    TMP DP  RH WIND       PRES   REMARKS
ESTEVAN        FOG       21  19  93 SE9       29.87F VSB 1/4 WCI  11
KINDERSLEY     NOT AVBL
LLOYDMINSTER   CLOUDY    16  14  93 E6        29.69S WCI   7
PRINCE ALBERT  CLOUDY    16  14  93 SE9       29.85F FOG     WCI   4
REGINA         NOT AVBL
YORKTON        CLOUDY    21  21 100 S8        29.88F WCI  12
N. BATTLEFORD  CLOUDY    18  16  93 SE15      29.75S WCI   3
LA RONGE       CLOUDY    12  10  92 SE7       29.87S WCI   2
SASKATOON      CLOUDY    16  16 100 SE12G20   29.77F WCI   3
SWIFT CURRENT  CLOUDY    36  30  80 SW16      29.68S
$$
NOTE: THESE ARE AUTOMATED STATIONS WITH LIMITED QUALITY CONTROL
      "FAIR" INDICATES FEW OR NO CLOUDS BELOW 12,000 FEET WITH NO
      SIGNIFICANT WEATHER AND/OR OBSTRUCTIONS TO VISIBILITY.
      SKY/WX - SKY CONDITION AND SIGNIFICANT WEATHER.
      TMP - AIR TEMPERATURE.    DP   - DEWPOINT TEMPERATURE.
      RH  - RELATIVE HUMIDITY.  PRES - PRESSURE.
      HX  - HEAT INDEX.         WCI  - WIND CHILL INDEX.
$


USA.gov is the U.S. government's official web portal to all federal, state and local government web resources and services.